Time,TemperatureF,DewpointF,PressureIn,WindDirection,WindDirectionDegrees,WindSpeedMPH,WindSpeedGustMPH,Humidity,HourlyPrecipIn,Conditions,Clouds,dailyrainin,SoftwareType,DateUTC
2013-12-20 00:08:00,46.4,42.0,29.89,SW,221,8.0,15.0,83,0.00,,,0.09,weatherlink.com 1.10,2013-12-20 05:08:00,
2013-12-20 00:24:00,46.3,42.0,29.88,SW,221,6.0,12.0,84,0.00,,,0.09,weatherlink.com 1.10,2013-12-20 05:24:00,
2013-12-20 00:40:00,46.4,42.0,29.88,SSW,205,6.0,10.0,84,0.00,,,0.09,weatherlink.com 1.10,2013-12-20 05:40:00,
2013-12-20 00:55:00,46.2,42.0,29.87,SW,226,9.0,13.0,85,0.00,,,0.09,weatherlink.com 1.10,2013-12-20 05:55:00,
2013-12-20 01:11:00,46.4,42.0,29.86,SSW,200,8.0,12.0,85,0.00,,,0.09,weatherlink.com 1.10,2013-12-20 06:11:00,
2013-12-20 01:26:00,46.1,42.0,29.86,SSW,209,7.0,12.0,86,0.00,,,0.09,weatherlink.com 1.10,2013-12-20 06:26:00,
2013-12-20 01:42:00,45.9,43.0,29.86,SSW,203,6.0,10.0,88,0.00,,,0.09,weatherlink.com 1.10,2013-12-20 06:42:00,
2013-12-20 01:57:00,45.9,43.0,29.86,SSW,208,7.0,9.0,88,0.01,,,0.10,weatherlink.com 1.10,2013-12-20 06:57:00,
2013-12-20 02:13:00,45.4,43.0,29.86,SW,219,6.0,9.0,90,0.01,,,0.10,weatherlink.com 1.10,2013-12-20 07:13:00,
2013-12-20 02:27:00,45.6,43.0,29.86,SSW,205,4.0,9.0,91,0.01,,,0.10,weatherlink.com 1.10,2013-12-20 07:27:00,
2013-12-20 02:41:00,45.7,43.0,29.85,SW,215,5.0,12.0,90,0.01,,,0.00,weatherlink.com 1.10,2013-12-20 07:41:00,
2013-12-20 02:56:00,45.7,43.0,29.85,South,188,6.0,12.0,91,0.01,,,0.01,weatherlink.com 1.10,2013-12-20 07:56:00,
2013-12-20 03:13:00,45.8,44.0,29.86,SSW,198,7.0,12.0,92,0.01,,,0.01,weatherlink.com 1.10,2013-12-20 08:13:00,
2013-12-20 03:27:00,45.6,44.0,29.85,SW,216,7.0,9.0,92,0.01,,,0.01,weatherlink.com 1.10,2013-12-20 08:27:00,
2013-12-20 03:42:00,45.7,44.0,29.85,SSW,207,6.0,16.0,93,0.02,,,0.02,weatherlink.com 1.10,2013-12-20 08:42:00,
2013-12-20 03:57:00,45.7,44.0,29.85,SW,216,4.0,10.0,93,0.01,,,0.02,weatherlink.com 1.10,2013-12-20 08:57:00,
2013-12-20 04:13:00,45.6,44.0,29.84,SSW,212,5.0,11.0,94,0.02,,,0.03,weatherlink.com 1.10,2013-12-20 09:13:00,
2013-12-20 04:30:00,45.5,44.0,29.84,SW,219,4.0,8.0,94,0.01,,,0.03,weatherlink.com 1.10,2013-12-20 09:30:00,
2013-12-20 04:44:00,45.3,44.0,29.83,South,191,4.0,9.0,95,0.02,,,0.04,weatherlink.com 1.10,2013-12-20 09:44:00,
2013-12-20 04:58:00,45.3,44.0,29.83,SSW,192,8.0,9.0,95,0.02,,,0.04,weatherlink.com 1.10,2013-12-20 09:58:00,
2013-12-20 05:13:00,45.3,44.0,29.82,South,183,5.0,11.0,95,0.01,,,0.04,weatherlink.com 1.10,2013-12-20 10:13:00,
2013-12-20 05:30:00,45.5,44.0,29.82,South,186,4.0,10.0,95,0.01,,,0.04,weatherlink.com 1.10,2013-12-20 10:30:00,
2013-12-20 05:45:00,45.6,44.0,29.82,SSE,168,5.0,10.0,95,0.00,,,0.04,weatherlink.com 1.10,2013-12-20 10:45:00,
2013-12-20 05:59:00,46.1,45.0,29.82,SSW,206,7.0,12.0,94,0.00,,,0.04,weatherlink.com 1.10,2013-12-20 10:59:00,
2013-12-20 06:15:00,46.3,45.0,29.81,SW,225,11.0,12.0,94,0.01,,,0.05,weatherlink.com 1.10,2013-12-20 11:15:00,
2013-12-20 06:31:00,46.3,45.0,29.81,SSW,201,7.0,10.0,94,0.01,,,0.05,weatherlink.com 1.10,2013-12-20 11:31:00,
2013-12-20 06:46:00,46.5,45.0,29.81,South,186,6.0,11.0,94,0.02,,,0.06,weatherlink.com 1.10,2013-12-20 11:46:00,
2013-12-20 07:02:00,46.5,45.0,29.81,South,179,4.0,10.0,94,0.03,,,0.07,weatherlink.com 1.10,2013-12-20 12:02:00,
2013-12-20 07:16:00,46.4,45.0,29.81,South,173,4.0,11.0,94,0.02,,,0.07,weatherlink.com 1.10,2013-12-20 12:16:00,
2013-12-20 07:32:00,46.4,45.0,29.80,SSW,196,3.0,8.0,94,0.02,,,0.07,weatherlink.com 1.10,2013-12-20 12:32:00,
2013-12-20 07:46:00,46.7,45.0,29.81,SSW,198,4.0,10.0,95,0.01,,,0.07,weatherlink.com 1.10,2013-12-20 12:46:00,
2013-12-20 08:01:00,47.0,46.0,29.81,SSW,200,4.0,10.0,95,0.00,,,0.07,weatherlink.com 1.10,2013-12-20 13:01:00,
2013-12-20 08:19:00,47.2,46.0,29.82,SSW,204,0.0,6.0,94,0.00,,,0.07,weatherlink.com 1.10,2013-12-20 13:19:00,
2013-12-20 08:32:00,46.9,45.0,29.82,SSW,207,2.0,5.0,93,0.00,,,0.07,weatherlink.com 1.10,2013-12-20 13:32:00,
2013-12-20 08:47:00,46.9,45.0,29.82,South,190,5.0,9.0,94,0.01,,,0.08,weatherlink.com 1.10,2013-12-20 13:47:00,
2013-12-20 09:03:00,47.4,46.0,29.82,SSW,209,4.0,10.0,95,0.02,,,0.09,weatherlink.com 1.10,2013-12-20 14:03:00,
2013-12-20 09:19:00,47.6,46.0,29.82,SW,223,5.0,10.0,95,0.02,,,0.09,weatherlink.com 1.10,2013-12-20 14:19:00,
2013-12-20 09:34:00,47.7,46.0,29.82,South,180,2.0,7.0,95,0.02,,,0.09,weatherlink.com 1.10,2013-12-20 14:34:00,
2013-12-20 09:49:00,47.8,47.0,29.82,SSW,207,3.0,7.0,95,0.01,,,0.09,weatherlink.com 1.10,2013-12-20 14:49:00,
2013-12-20 10:04:00,48.3,47.0,29.82,South,180,1.0,12.0,95,0.00,,,0.09,weatherlink.com 1.10,2013-12-20 15:04:00,
2013-12-20 10:19:00,48.7,47.0,29.83,South,187,6.0,10.0,95,0.00,,,0.09,weatherlink.com 1.10,2013-12-20 15:19:00,
2013-12-20 10:35:00,48.8,48.0,29.83,SSW,210,7.0,11.0,95,0.00,,,0.09,weatherlink.com 1.10,2013-12-20 15:35:00,
2013-12-20 10:50:00,48.7,47.0,29.83,SSW,194,7.0,10.0,95,0.00,,,0.09,weatherlink.com 1.10,2013-12-20 15:50:00,
2013-12-20 11:06:00,48.7,47.0,29.82,SSW,195,4.0,10.0,95,0.00,,,0.09,weatherlink.com 1.10,2013-12-20 16:06:00,
2013-12-20 11:22:00,48.7,48.0,29.82,SW,234,5.0,10.0,96,0.01,,,0.10,weatherlink.com 1.10,2013-12-20 16:22:00,
2013-12-20 11:37:00,48.5,48.0,29.81,South,179,3.0,8.0,96,0.03,,,0.12,weatherlink.com 1.10,2013-12-20 16:37:00,
2013-12-20 11:51:00,48.5,48.0,29.81,SSE,161,8.0,8.0,96,0.04,,,0.13,weatherlink.com 1.10,2013-12-20 16:51:00,
2013-12-20 12:06:00,48.9,48.0,29.80,SSW,209,6.0,10.0,96,0.05,,,0.14,weatherlink.com 1.10,2013-12-20 17:06:00,
2013-12-20 12:21:00,49.2,48.0,29.79,SW,219,4.0,11.0,96,0.06,,,0.16,weatherlink.com 1.10,2013-12-20 17:21:00,
2013-12-20 12:36:00,49.8,49.0,29.78,SSW,196,6.0,12.0,97,0.04,,,0.16,weatherlink.com 1.10,2013-12-20 17:36:00,
2013-12-20 12:52:00,50.2,49.0,29.77,South,173,3.0,15.0,97,0.03,,,0.16,weatherlink.com 1.10,2013-12-20 17:52:00,
2013-12-20 13:07:00,50.5,49.0,29.77,SSW,194,10.0,15.0,96,0.01,,,0.16,weatherlink.com 1.10,2013-12-20 18:07:00,
2013-12-20 13:22:00,50.7,50.0,29.76,SSW,194,11.0,14.0,96,0.00,,,0.16,weatherlink.com 1.10,2013-12-20 18:22:00,
2013-12-20 13:37:00,50.8,50.0,29.76,SSW,207,9.0,13.0,97,0.00,,,0.16,weatherlink.com 1.10,2013-12-20 18:37:00,
2013-12-20 13:53:00,51.0,50.0,29.76,SW,221,7.0,13.0,97,0.00,,,0.16,weatherlink.com 1.10,2013-12-20 18:53:00,
2013-12-20 14:10:00,51.2,50.0,29.75,SSW,192,6.0,13.0,97,0.00,,,0.16,weatherlink.com 1.10,2013-12-20 19:10:00,
2013-12-20 14:24:00,51.4,51.0,29.75,SSW,194,8.0,14.0,97,0.00,,,0.16,weatherlink.com 1.10,2013-12-20 19:24:00,
2013-12-20 14:38:00,51.6,51.0,29.74,SSW,200,7.0,15.0,97,0.00,,,0.16,weatherlink.com 1.10,2013-12-20 19:38:00,
2013-12-20 14:54:00,51.7,51.0,29.75,SSW,207,7.0,16.0,97,0.00,,,0.16,weatherlink.com 1.10,2013-12-20 19:54:00,
2013-12-20 15:09:00,51.8,51.0,29.74,SSW,205,5.0,15.0,97,0.00,,,0.16,weatherlink.com 1.10,2013-12-20 20:09:00,
2013-12-20 15:24:00,52.0,51.0,29.75,SSW,211,6.0,15.0,97,0.00,,,0.16,weatherlink.com 1.10,2013-12-20 20:24:00,
2013-12-20 15:39:00,52.2,52.0,29.75,SSW,194,5.0,13.0,98,0.00,,,0.16,weatherlink.com 1.10,2013-12-20 20:39:00,
2013-12-20 15:57:00,52.5,52.0,29.75,SSW,209,7.0,12.0,98,0.00,,,0.16,weatherlink.com 1.10,2013-12-20 20:57:00,
2013-12-20 16:12:00,52.6,52.0,29.75,South,170,5.0,11.0,98,0.00,,,0.16,weatherlink.com 1.10,2013-12-20 21:12:00,
2013-12-20 16:26:00,52.5,52.0,29.76,SSW,202,4.0,10.0,98,0.00,,,0.16,weatherlink.com 1.10,2013-12-20 21:26:00,
2013-12-20 16:41:00,52.6,52.0,29.75,SW,220,8.0,12.0,98,0.00,,,0.16,weatherlink.com 1.10,2013-12-20 21:41:00,
2013-12-20 16:56:00,52.9,52.0,29.75,WSW,243,10.0,12.0,98,0.00,,,0.16,weatherlink.com 1.10,2013-12-20 21:56:00,
2013-12-20 17:12:00,53.2,53.0,29.76,SSW,213,5.0,12.0,98,0.00,,,0.16,weatherlink.com 1.10,2013-12-20 22:12:00,
2013-12-20 17:26:00,53.3,53.0,29.76,SSW,210,6.0,10.0,98,0.00,,,0.16,weatherlink.com 1.10,2013-12-20 22:26:00,
2013-12-20 17:42:00,53.5,53.0,29.76,SW,215,4.0,11.0,98,0.00,,,0.16,weatherlink.com 1.10,2013-12-20 22:42:00,
2013-12-20 17:58:00,53.9,53.0,29.76,South,186,7.0,12.0,98,0.00,,,0.16,weatherlink.com 1.10,2013-12-20 22:58:00,
2013-12-20 18:13:00,54.2,54.0,29.76,SSW,207,4.0,14.0,98,0.00,,,0.16,weatherlink.com 1.10,2013-12-20 23:13:00,
2013-12-20 18:27:00,54.3,54.0,29.76,SSW,194,7.0,12.0,98,0.00,,,0.16,weatherlink.com 1.10,2013-12-20 23:27:00,
2013-12-20 18:43:00,54.6,54.0,29.76,SW,221,8.0,13.0,98,0.00,,,0.16,weatherlink.com 1.10,2013-12-20 23:43:00,
2013-12-20 18:59:00,54.5,54.0,29.76,SW,221,4.0,11.0,98,0.00,,,0.16,weatherlink.com 1.10,2013-12-20 23:59:00,
2013-12-20 19:14:00,54.7,54.0,29.76,SSW,204,7.0,11.0,98,0.00,,,0.16,weatherlink.com 1.10,2013-12-21 00:14:00,
2013-12-20 19:30:00,55.0,55.0,29.76,SSW,200,5.0,15.0,98,0.00,,,0.16,weatherlink.com 1.10,2013-12-21 00:30:00,
2013-12-20 19:43:00,55.3,55.0,29.77,SSW,209,8.0,17.0,98,0.00,,,0.16,weatherlink.com 1.10,2013-12-21 00:43:00,
2013-12-20 19:59:00,55.6,55.0,29.76,South,180,10.0,14.0,98,0.00,,,0.16,weatherlink.com 1.10,2013-12-21 00:59:00,
2013-12-20 20:15:00,56.0,55.0,29.76,SW,226,6.0,15.0,97,0.00,,,0.16,weatherlink.com 1.10,2013-12-21 01:15:00,
2013-12-20 20:30:00,56.3,56.0,29.75,SSW,192,7.0,16.0,97,0.01,,,0.17,weatherlink.com 1.10,2013-12-21 01:30:00,
2013-12-20 20:45:00,56.2,55.0,29.75,SSW,199,8.0,14.0,97,0.01,,,0.17,weatherlink.com 1.10,2013-12-21 01:45:00,
2013-12-20 21:02:00,56.4,55.0,29.75,SW,215,12.0,14.0,96,0.01,,,0.17,weatherlink.com 1.10,2013-12-21 02:02:00,
2013-12-20 21:17:00,56.3,55.0,29.75,SSW,203,7.0,16.0,96,0.01,,,0.17,weatherlink.com 1.10,2013-12-21 02:17:00,
2013-12-20 21:31:00,56.2,55.0,29.74,SSW,211,5.0,14.0,96,0.00,,,0.17,weatherlink.com 1.10,2013-12-21 02:31:00,
2013-12-20 21:47:00,56.1,55.0,29.75,SW,220,9.0,13.0,96,0.00,,,0.17,weatherlink.com 1.10,2013-12-21 02:47:00,
2013-12-20 22:01:00,56.3,55.0,29.74,SSW,207,7.0,14.0,96,0.00,,,0.17,weatherlink.com 1.10,2013-12-21 03:01:00,
2013-12-20 22:16:00,56.3,55.0,29.75,SW,227,5.0,11.0,95,0.00,,,0.17,weatherlink.com 1.10,2013-12-21 03:16:00,
2013-12-20 22:32:00,56.5,55.0,29.76,SW,234,9.0,10.0,96,0.00,,,0.17,weatherlink.com 1.10,2013-12-21 03:32:00,
2013-12-20 22:47:00,56.4,55.0,29.76,SW,234,5.0,12.0,95,0.00,,,0.17,weatherlink.com 1.10,2013-12-21 03:47:00,
2013-12-20 23:02:00,56.3,55.0,29.75,SW,236,3.0,9.0,95,0.00,,,0.17,weatherlink.com 1.10,2013-12-21 04:02:00,
2013-12-20 23:17:00,56.0,55.0,29.76,SW,234,2.0,10.0,95,0.01,,,0.18,weatherlink.com 1.10,2013-12-21 04:17:00,
2013-12-20 23:32:00,55.3,54.0,29.76,WSW,250,3.0,11.0,95,0.01,,,0.18,weatherlink.com 1.10,2013-12-21 04:32:00,
2013-12-20 23:47:00,54.5,53.0,29.76,WSW,246,5.0,9.0,94,0.02,,,0.19,weatherlink.com 1.10,2013-12-21 04:47:00,